Location: West Cummington
(42.4920°N, 72.9680°W)
Time: 07:32:14
(UTC-04:00)

Cosmos 2221 - Visible Passes

Search period start: 29 July 2015 00:00
Search period end: 08 August 2015 00:00
Orbit: 594 x 620 km, 82.5° (Epoch: 28 July)

Date Brightness Start Highest point End Pass type
(mag) Time Alt. Az. Time Alt. Az. Time Alt. Az.
29 Jul 2.6 04:00:04 18° S 04:03:16 75° E 04:07:34 10° NNE visible
30 Jul 5.3 02:38:41 10° E 02:39:44 11° E 02:41:03 10° ENE visible
30 Jul 2.6 04:14:02 20° SSW 04:16:54 63° W 04:21:11 10° N visible
31 Jul 4.8 02:51:03 13° ESE 02:53:11 19° E 02:56:16 10° NE visible
31 Jul 3.2 04:27:58 19° SW 04:30:36 36° WNW 04:34:36 10° N visible
01 Aug 4.0 03:04:58 23° SE 03:06:41 31° E 03:10:31 10° NNE visible
01 Aug 3.9 04:41:53 14° WSW 04:44:24 22° WNW 04:47:45 10° NNW visible
02 Aug 3.1 03:18:51 37° SSE 03:20:14 53° E 03:24:27 10° NNE visible
02 Aug 4.5 04:56:01 10° W 04:58:18 14° WNW 05:00:24 10° NW visible
03 Aug 2.4 03:32:43 50° S 03:33:50 87° W 03:38:09 10° N visible
04 Aug 5.0 02:09:39 13° E 02:10:14 14° E 02:12:31 10° NE visible
04 Aug 2.8 03:46:34 42° WSW 03:47:29 49° WNW 03:51:41 10° N visible
05 Aug 4.3 02:23:28 23° E 02:23:42 23° E 02:27:08 10° NE visible
05 Aug 3.5 04:00:23 27° W 04:01:14 29° WNW 04:04:59 10° NNW visible
06 Aug 3.5 02:37:16 38° E 02:37:16 38° E 02:41:13 10° NNE visible
06 Aug 4.2 04:14:12 17° W 04:15:05 18° WNW 04:17:59 10° NNW visible
07 Aug 2.7 02:51:03 65° ENE 02:51:03 65° ENE 02:55:02 10° NNE visible
07 Aug 4.7 04:27:59 10° W 04:29:00 11° WNW 04:30:02 10° NW visible
